Regional Weather Roundup
Issued by NWS Sioux Falls, SD

Home | Current Version | Previous Version | Graphics & Text | Print | Product List | Glossary Off
Versions: 1 2 3 4 5 6 7 8 9 10 11 12 13 14 15 16 17 18 19 20 21 22 23 24 25 26 27 28 29 30 31 32 33 34 35 36 37 38 39 40 41 42 43 44 45 46 47 48 49 50

000
ASUS43 KFSD 282002
RWRFSD

WEATHER ROUNDUP FOR SE SOUTH DAKOTA/SW MINNESOTA/NW IOWA
NATIONAL WEATHER SERVICE SIOUX FALLS SD
300 PM CDT MON JUL 28 2014

NOTE: "FAIR" INDICATES FEW OR NO CLOUDS BELOW 12,000 FEET WITH NO
SIGNIFICANT WEATHER AND OR OBSTRUCTIONS TO VISIBILITY.


SDZ038>040-050-052>070-282100-
SOUTHEAST SOUTH DAKOTA

CITY           SKY/WX    TMP DP  RH WIND       PRES   REMARKS
CHAMBERLAIN    MOSUNNY   74  51  43 CALM      30.28F
HURON          MOSUNNY   75  52  44 NE9       30.27F
MADISON        MOCLDY    72  54  53 N7        30.27F
MITCHELL       MOSUNNY   75  53  46 N8        30.27F
SIOUX FALLS    MOSUNNY   74  55  51 N9G22     30.25F
WINNER         FAIR      80  50  34 NE8       30.28F
YANKTON          N/A     73  54  49 NW8       30.26
$$

MNZ071-072-080-081-089-090-097-098-282100-
SOUTHWEST MINNESOTA

CITY           SKY/WX    TMP DP  RH WIND       PRES   REMARKS
FAIRMONT       CLOUDY    73  54  49 N6        30.21F
JACKSON        CLOUDY    70  52  52 CALM      30.23F
LUVERNE        PTSUNNY   72  54  53 NE3       30.25S
MARSHALL       CLOUDY    72  54  53 N14       30.24R
MONTEVIDEO     CLOUDY    73  55  53 NE10      30.25R
PIPESTONE      PTSUNNY   72  52  49 N6        30.26S
REDWOOD FALLS  PTSUNNY   75  51  43 N6        30.22S
TRACY          PTSUNNY   72  56  57 N12       30.24S
WINDOM         PTSUNNY   72  55  56 N9        30.23S
WORTHINGTON    PTSUNNY   70  54  56 N9        30.25S
$$

IAZ001>003-012>014-020>022-031-032-NEZ013-014-SDZ071-282100-
NORTHWEST IOWA

CITY           SKY/WX    TMP DP  RH WIND       PRES   REMARKS
CHEROKEE       PTSUNNY   72  59  65 NW6       30.23S
DENISON        PTSUNNY   72  59  64 N8G14     30.21F
ESTHERVILLE    CLOUDY    72  56  57 VRB7      30.22S
LE MARS        PTSUNNY   73  59  60 N9        30.24S
ORANGE CITY    MOSUNNY   73  55  53 NW9       30.24S
SHELDON        CLOUDY    70  57  64 N7        30.23S
SIOUX CITY     PTSUNNY   78  58  49 VRB6      30.24S
SPENCER        CLOUDY    71  58  63 VRB3      30.23S
STORM LAKE     PTSUNNY   70  63  78 VRB7      30.24S
$$

ABBREVIATIONS USED IN REMARKS
   TC - TEMPERATURE IN CELSIUS
  WCI - WIND CHILL INDEX
   HX - HEAT INDEX
  VSB - VISIBILITY




USA.gov is the U.S. government's official web portal to all federal, state and local government web resources and services.